This is the latest recevied weather packets stored in our database for station/object N4ZIQ. If no packets are shown the sender has not sent any weather packets the latest 10 day(s).
| Time | Temp. | Humidity | Pressure | Rain* | Wind** | Luminosity | Snow |
|---|---|---|---|---|---|---|---|
| 1778203548 | 26.11° C | 53% | 1013.8 hPa | 0 mm | - | 0 W/m² | - |
| 1778203248 | 26.67° C | 53% | 1013.7 hPa | 0 mm | - | 0 W/m² | - |
| 1778202949 | 26.67° C | 52% | 1013.7 hPa | 0 mm | - | 0 W/m² | - |
| 1778202649 | 26.67° C | 51% | 1013.7 hPa | 0 mm | - | 0 W/m² | - |
| 1778202347 | 27.22° C | 51% | 1013.7 hPa | 0 mm | - | 0 W/m² | - |
| 1778202057 | 27.22° C | 51% | 1013.7 hPa | 0 mm | - | 0 W/m² | - |
| 1778201747 | 27.22° C | 51% | 1013.6 hPa | 0 mm | - | 0 W/m² | - |
| 1778201447 | 27.78° C | 50% | 1013.5 hPa | 0 mm | - | 0 W/m² | - |
| 1778201179 | 28.33° C | 48% | 1013.5 hPa | 0 mm | - | 0 W/m² | - |
| 1778200848 | 28.33° C | 48% | 1013.5 hPa | 0 mm | - | 0 W/m² | - |
| 1778200547 | 28.33° C | 48% | 1013.5 hPa | 0 mm | - | 0 W/m² | - |
| 1778200261 | 28.33° C | 49% | 1013.4 hPa | 0 mm | - | 0 W/m² | - |
| 1778199948 | 27.78° C | 50% | 1013.4 hPa | 0 mm | - | 0 W/m² | - |
| 1778199647 | 27.78° C | 54% | 1013.3 hPa | 0 mm | - | 0 W/m² | - |
| 1778199353 | 27.78° C | 55% | 1013.2 hPa | 0 mm | - | 0 W/m² | - |
| 1778199048 | 28.33° C | 52% | 1013.2 hPa | 0 mm | - | 0 W/m² | - |
| 1778198751 | 27.78° C | 56% | 1013.1 hPa | 0 mm | - | 0 W/m² | - |
| 1778198461 | 28.89° C | 49% | 1013.2 hPa | 0 mm | - | 7 W/m² | - |
| 1778198149 | 30° C | 47% | 1013.2 hPa | 0 mm | - | 11 W/m² | - |
| 1778197848 | 30° C | 47% | 1013.1 hPa | 0 mm | - | 14 W/m² | - |
| 1778197554 | 30° C | 48% | 1013.2 hPa | 0 mm | - | 19 W/m² | - |
| 1778197249 | 30.56° C | 47% | 1013.1 hPa | 0 mm | - | 23 W/m² | - |
| 1778196947 | 30.56° C | 47% | 1013 hPa | 0 mm | - | 25 W/m² | - |
| 1778196652 | 31.11° C | 46% | 1012.9 hPa | 0 mm | - | 30 W/m² | - |
| 1778196345 | 31.67° C | 46% | 1013 hPa | 0 mm | - | 33 W/m² | - |
* Rain latest hour (hover to see other rain measurements)
** Current wind speed in m/s (hover to see current wind gust speed)